Weather History for KSQL - March, 2013

Change the Weather History Date:

Tuesday, March 5, 2013

  Actual Average (KSFO) Record (KSFO)
Temperature  
Mean Temperature 50 °F 54 °F  
Max Temperature 57 °F 61 °F 76 °F (1959)
Min Temperature 42 °F 47 °F 35 °F (1955)
Degree Days  
Heating Degree Days 16 11  
Month to date heating degree days 55  
Since 1 July heating degree days 1861  
Cooling Degree Days 0 0  
Month to date cooling degree days 0  
Year to date cooling degree days 0  
Moisture  
Dew Point 40 °F    
Average Humidity 74    
Maximum Humidity 87    
Minimum Humidity 51    
Precipitation  
Precipitation 0.00 in 0.11 in 0.99 in (1962)
Month to date precipitation 0.61  
Year to date precipitation 8.86  
Sea Level Pressure  
Sea Level Pressure 30.01 in    
Wind  
Wind Speed 6 mph (South)    
Max Wind Speed 22 mph    
Max Gust Speed 28 mph    
Visibility 9 miles    
Events Rain    
T = Trace of Precipitation, MM = Missing Value Source: NWS Daily Summary

Daily Weather History Graph

Daily Weather History Graph

Search for Another Location

Airport or City:

Trip Planner

Search our weather history database for the weather conditions in past years. The results will help you decide how hot, cold, wet, or windy it might be!

Date:

Astronomy

Mar. 05, 2013 Rise Set
Actual Time 6:34 AM PST 6:07 PM PST
Civil Twilight 6:08 AM PST 6:33 PM PST
Nautical Twilight 5:37 AM PST 7:03 PM PST
Astronomical Twilight 5:07 AM PST 7:33 PM PST
Moon 1:46 AM PST (3/5) 11:56 AM PST (3/5)
Length of Visible Light 12h 25m
Length of Day
11h 32m
Last Quarter, 39% of the Moon is Illuminated
Mar 5
Last Quarter
Mar 11
New
Mar 19
First Quarter
Mar 27
Full
Apr 2
Last Quarter

Hourly Weather History & Observations

Time (PST) Temp. Windchill Dew Point Humidity Pressure Visibility Wind Dir Wind Speed Gust Speed Precip Events Conditions
12:10 AM 44.6 °F - 39.2 °F 81% 30.09 in 10.0 mi Calm Calm - N/A   Overcast
12:30 AM 44.6 °F 43.1 °F 39.2 °F 81% 30.08 in 10.0 mi SW 3.5 mph - N/A   Overcast
12:50 AM 44.6 °F - 39.2 °F 81% 30.08 in 10.0 mi Calm Calm - N/A   Overcast
1:10 AM 44.6 °F - 39.2 °F 81% 30.08 in 10.0 mi Calm Calm - N/A   Mostly Cloudy
1:30 AM 42.8 °F - 39.2 °F 87% 30.08 in 10.0 mi Calm Calm - N/A   Partly Cloudy
1:50 AM 42.8 °F - 39.2 °F 87% 30.09 in 10.0 mi Calm Calm - N/A   Clear
2:10 AM 42.8 °F 40.1 °F 39.2 °F 87% 30.09 in 10.0 mi NW 4.6 mph - N/A   Mostly Cloudy
2:30 AM 44.6 °F 41.4 °F 39.2 °F 81% 30.09 in 10.0 mi West 5.8 mph - N/A   Overcast
2:50 AM 46.4 °F 42.9 °F 39.2 °F 76% 30.08 in 10.0 mi West 6.9 mph - N/A   Overcast
3:10 AM 46.4 °F 41.5 °F 39.2 °F 76% 30.08 in 10.0 mi West 10.4 mph - N/A   Overcast
3:30 AM 46.4 °F 44.3 °F 39.2 °F 76% 30.09 in 10.0 mi West 4.6 mph - N/A   Scattered Clouds
3:50 AM 46.4 °F 44.3 °F 39.2 °F 76% 30.08 in 10.0 mi WSW 4.6 mph - N/A   Clear
4:10 AM 46.4 °F - 39.2 °F 76% 30.08 in 10.0 mi Calm Calm - N/A   Clear
5:10 AM 44.6 °F - 37.4 °F 76% 30.09 in 10.0 mi Calm Calm - N/A   Overcast
5:30 AM 44.6 °F 42.2 °F 37.4 °F 76% 30.09 in 10.0 mi SSE 4.6 mph - N/A   Overcast
5:50 AM 44.6 °F - 37.4 °F 76% 30.08 in 10.0 mi Calm Calm - N/A   Overcast
6:10 AM 42.8 °F 41.1 °F 37.4 °F 81% 30.08 in 10.0 mi SSW 3.5 mph - N/A   Overcast
6:30 AM 42.8 °F 40.1 °F 37.4 °F 81% 30.08 in 10.0 mi SSW 4.6 mph - N/A   Overcast
6:50 AM 42.8 °F 41.1 °F 37.4 °F 81% 30.08 in 10.0 mi SW 3.5 mph - N/A   Mostly Cloudy
6:51 AM 42.8 °F 41.1 °F 37.4 °F 81% 30.09 in 10.0 mi SSW 3.5 mph - N/A   Mostly Cloudy
7:47 AM 44.6 °F 41.4 °F 37.4 °F 76% 30.08 in 10.0 mi SE 5.8 mph - N/A   Mostly Cloudy
8:49 AM 50.0 °F - 39.2 °F 66% 30.06 in 10.0 mi SE 8.1 mph - N/A   Mostly Cloudy
9:50 AM 53.6 °F - 39.2 °F 58% 30.06 in 10.0 mi NE 3.5 mph - N/A   Mostly Cloudy
10:57 AM 53.6 °F - 39.2 °F 58% 30.04 in 10.0 mi Variable 3.5 mph - N/A   Mostly Cloudy
11:47 AM 55.4 °F - 42.8 °F 63% 30.03 in 10.0 mi NNE 10.4 mph - N/A   Mostly Cloudy
12:34 PM 57.2 °F - 39.2 °F 51% 30.01 in 10.0 mi South 11.5 mph - N/A   Scattered Clouds
12:55 PM 57.2 °F - 39.2 °F 51% 30.01 in 10.0 mi SW 15.0 mph 18.4 mph N/A   Scattered Clouds
2:50 PM 55.4 °F - 39.2 °F 54% 29.97 in 10.0 mi South 11.5 mph - N/A   Scattered Clouds
3:53 PM 55.4 °F - 39.2 °F 54% 29.96 in 10.0 mi SE 16.1 mph 24.2 mph N/A   Mostly Cloudy
4:57 PM 55.4 °F - 41.0 °F 58% 29.93 in 10.0 mi SSE 16.1 mph 21.9 mph N/A   Mostly Cloudy
5:55 PM 53.6 °F - 39.2 °F 58% 29.90 in 10.0 mi South 17.3 mph 23.0 mph N/A   Mostly Cloudy
6:53 PM 53.6 °F - 41.0 °F 62% 29.91 in 10.0 mi South 15.0 mph 21.9 mph N/A   Mostly Cloudy
7:47 PM 53.6 °F - 41.0 °F 62% 29.90 in 10.0 mi SE 18.4 mph 24.2 mph N/A   Mostly Cloudy
8:59 PM 53.6 °F - 44.6 °F 72% 29.88 in 10.0 mi SE 19.6 mph 25.3 mph N/A Rain Light Rain
9:10 PM 51.8 °F - 44.6 °F 76% 29.89 in 6.0 mi SE 18.4 mph 25.3 mph N/A Rain Light Rain
9:30 PM 50.0 °F - 44.6 °F 82% 29.89 in 5.0 mi SE 19.6 mph 24.2 mph N/A Rain Light Rain
9:50 PM 50.0 °F - 46.4 °F 87% 29.89 in 3.0 mi SE 16.1 mph 27.6 mph N/A   Haze
10:10 PM 50.0 °F - 46.4 °F 87% 29.88 in 5.0 mi SE 17.3 mph 24.2 mph N/A Rain Light Rain
10:30 PM 50.0 °F - 46.4 °F 87% 29.88 in 10.0 mi SE 16.1 mph 25.3 mph N/A   Mostly Cloudy
10:50 PM 50.0 °F - 44.6 °F 82% 29.88 in 10.0 mi South 13.8 mph 21.9 mph N/A   Overcast
11:10 PM 50.0 °F - 44.6 °F 82% 29.88 in 10.0 mi South 21.9 mph 27.6 mph N/A   Overcast
11:30 PM 50.0 °F - 44.6 °F 82% 29.88 in 6.0 mi South 17.3 mph 26.5 mph N/A   Haze
11:50 PM 50.0 °F - 44.6 °F 82% 29.87 in 10.0 mi SSE 16.1 mph 21.9 mph N/A   Overcast